Location: Mitty Observatory
(35.9148°N, 88.8847°W)
Time: 10:50:48
(UTC-05:00)

N. Korean satellite - Visible Passes

Search period start: 18 March 2019 00:00
Search period end: 28 March 2019 00:00
Orbit: 455 x 511 km, 97.2° (Epoch: 18 March)

Date Brightness Start Highest point End Pass type
(mag) Time Alt. Az. Time Alt. Az. Time Alt. Az.
18 Mar 10.0 06:07:39 10° ENE 06:09:28 13° E 06:11:16 10° SE visible
21 Mar 9.4 06:25:36 10° NE 06:28:33 24° E 06:31:30 10° SSE visible
22 Mar 10.2 06:02:20 10° ENE 06:03:36 11° E 06:04:51 10° ESE visible
25 Mar 9.7 06:19:54 10° NE 06:22:39 21° E 06:25:26 10° SE visible
